This is the latest recevied weather packets stored in our database for station/object IZ1UQG-1. If no packets are shown the sender has not sent any weather packets the latest 10 day(s).
| Time | Temp. | Humidity | Pressure | Rain* | Wind** | Luminosity | Snow |
|---|---|---|---|---|---|---|---|
| 1777845839 | 18.89° C | 47% | 1016.8 hPa | 51.56 mm | - | - | - |
| 1777845538 | 18.89° C | 47% | 1016.9 hPa | 20.83 mm | - | - | - |
| 1777845239 | 18.89° C | 47% | 1016.8 hPa | 61.21 mm | - | - | - |
| 1777844938 | 18.89° C | 46% | 1016.6 hPa | 23.62 mm | - | - | - |
| 1777844639 | 19.44° C | 46% | 1016.7 hPa | 24.13 mm | - | - | - |
| 1777844339 | 19.44° C | 46% | 1016.5 hPa | 1.27 mm | - | - | - |
| 1777844039 | 19.44° C | 46% | 1016.5 hPa | 23.11 mm | - | - | - |
| 1777843739 | 19.44° C | 46% | 1016.8 hPa | 8.89 mm | - | - | - |
| 1777843439 | 19.44° C | 46% | 1016.7 hPa | 248.92 mm | - | - | - |
| 1777843139 | 19.44° C | 46% | 1016.6 hPa | 218.44 mm | - | - | - |
| 1777842839 | 19.44° C | 46% | 1016.6 hPa | 252.22 mm | - | - | - |
| 1777842539 | 20° C | 46% | 1016.7 hPa | 243.84 mm | - | - | - |
| 1777842239 | 20° C | 45% | 1016.5 hPa | 224.79 mm | - | - | - |
| 1777841939 | 20° C | 45% | 1016.3 hPa | 168.66 mm | - | - | - |
| 1777841639 | 20° C | 45% | 1016.4 hPa | 242.32 mm | - | - | - |
| 1777841339 | 20° C | 45% | 1016.4 hPa | 227.84 mm | - | - | - |
| 1777841039 | 20° C | 45% | 1016.3 hPa | 202.95 mm | - | - | - |
| 1777840739 | 20° C | 45% | 1016.4 hPa | 176.02 mm | - | - | - |
| 1777840439 | 20° C | 45% | 1016.4 hPa | 232.92 mm | - | - | - |
| 1777840139 | 20.56° C | 45% | 1016.4 hPa | 231.39 mm | - | - | - |
| 1777839839 | 20.56° C | 44% | 1016.4 hPa | 235.97 mm | - | - | - |
| 1777839539 | 20.56° C | 44% | 1016.4 hPa | 207.52 mm | - | - | - |
| 1777839239 | 20.56° C | 44% | 1016.4 hPa | 239.27 mm | - | - | - |
| 1777838939 | 20.56° C | 44% | 1016.3 hPa | 244.86 mm | - | - | - |
| 1777838639 | 20.56° C | 44% | 1016.3 hPa | 242.82 mm | - | - | - |
* Rain latest hour (hover to see other rain measurements)
** Current wind speed in m/s (hover to see current wind gust speed)